Cut Bank, MT

8:13 PM MDT on October 13, 2019 (GMT -0600)
Cut Bank Municipal

Weather History for KCTB - August, 2019

Change the Weather History Date:

Friday, August 16, 2019

  Actual Average Record
Temperature  
Mean Temperature 60 °F 64 °F  
Max Temperature 73 °F 80 °F 95 °F (1962)
Min Temperature 46 °F 49 °F 31 °F (1910)
Degree Days  
Heating Degree Days 6 3  
Month to date heating degree days 32 39  
Since 1 June heating degree days 347 358  
Since 1 July heating degree days 125 125  
Cooling Degree Days 0 2  
Month to date cooling degree days 42 45  
Year to date cooling degree days 95 134  
Since 1 June cooling degree days 95 132  
Growing Degree Days 10 (Base 50)    
Moisture  
Dew Point 44 °F    
Average Humidity 68    
Maximum Humidity 90    
Minimum Humidity 31    
Precipitation  
Precipitation 0.05 in 0.04 in 1.09 in (1993)
Month to date precipitation 0.95 0.59  
Year to date precipitation 8.36 8.06  
Snow  
Snow - - - ()
Snow Depth 0.00 in    
Sea Level Pressure  
Sea Level Pressure 29.89 in    
Wind  
Wind Speed 11 mph ()    
Max Wind Speed 36 mph    
Max Gust Speed 42 mph    
Visibility 9.8 miles    
Events Rain    
T = Trace of Precipitation, MM = Missing Value Source: Averaged Metar Reports

Daily Weather History Graph

Daily Weather History Graph

Search for Another Location

Airport or City:

Astronomy

Aug. 16, 2019 Rise Set
Actual Time 6:24 AM MDT 8:42 PM MDT
Civil Twilight 5:49 AM MDT 9:17 PM MDT
Nautical Twilight 5:06 AM MDT 10:00 PM MDT
Astronomical Twilight 4:16 AM MDT 10:49 PM MDT
Moon 9:40 PM MDT (8/16) 7:19 AM MDT (8/16)
Length of Visible Light 15h 27m
Length of Day
14h 18m
Full, 99% of the Moon is Illuminated
Aug 16
Full
Aug 23
Last Quarter
Aug 30
New
Sep 5
First Quarter
Sep 13
Full

Hourly Weather History & Observations

Time (MDT) Temp. Dew Point Humidity Pressure Visibility Wind Dir Wind Speed Gust Speed Precip Events Conditions
12:56 AM 55.0 °F 42.1 °F 62% 29.86 in 10.0 mi West 5.8 mph - N/A   Clear
1:56 AM 54.0 °F 41.0 °F 62% 29.85 in 10.0 mi West 3.5 mph - N/A   Clear
2:56 AM 52.0 °F 41.0 °F 66% 29.83 in 10.0 mi West 9.2 mph - N/A   Clear
3:56 AM 52.0 °F 41.0 °F 66% 29.82 in 10.0 mi WNW 11.5 mph - N/A   Clear
4:56 AM 53.1 °F 41.0 °F 64% 29.81 in 10.0 mi WNW 12.7 mph - N/A   Clear
5:56 AM 52.0 °F 41.0 °F 66% 29.82 in 10.0 mi West 12.7 mph - N/A   Clear
6:56 AM 54.0 °F 41.0 °F 62% 29.81 in 10.0 mi West 9.2 mph - N/A   Clear
7:56 AM 57.0 °F 42.1 °F 57% 29.83 in 10.0 mi NW 8.1 mph - N/A   Clear
8:56 AM 63.0 °F 43.0 °F 48% 29.84 in 10.0 mi NW 4.6 mph - N/A   Clear
9:56 AM 64.0 °F 42.1 °F 45% 29.85 in 10.0 mi North 9.2 mph - N/A   Partly Cloudy
10:56 AM 64.9 °F 46.0 °F 50% 29.84 in 10.0 mi NNE 6.9 mph - N/A   Scattered Clouds
11:56 AM 66.0 °F 46.0 °F 48% 29.84 in 10.0 mi NNE 6.9 mph - N/A   Mostly Cloudy
12:56 PM 68.0 °F 45.0 °F 43% 29.81 in 10.0 mi SSW 3.5 mph - N/A   Scattered Clouds
1:56 PM 72.0 °F 44.1 °F 37% 29.79 in 10.0 mi Variable 4.6 mph - N/A   Scattered Clouds
2:56 PM 72.0 °F 39.9 °F 31% 29.79 in 10.0 mi West 18.4 mph 32.2 mph N/A   Overcast
3:30 PM 57.9 °F 48.9 °F 72% 29.89 in 10.0 mi North 31.1 mph 39.1 mph N/A   Overcast
3:52 PM 55.4 °F 48.2 °F 77% 29.93 in 10.0 mi North 29.9 mph 36.8 mph 0.00 in Rain Light Rain
3:56 PM 55.0 °F 48.9 °F 80% 29.90 in 10.0 mi North 31.1 mph 39.1 mph 0.00 in   Overcast
4:48 PM 55.9 °F 46.9 °F 72% 29.95 in 10.0 mi North 25.3 mph 35.7 mph N/A   Overcast
4:56 PM 54.0 °F 45.0 °F 72% 29.93 in 10.0 mi North 28.8 mph 35.7 mph N/A   Overcast
5:06 PM 52.0 °F 44.1 °F 74% 29.96 in 10.0 mi North 27.6 mph 35.7 mph 0.00 in Rain Light Rain
5:36 PM 52.0 °F 45.0 °F 77% 29.97 in 10.0 mi North 25.3 mph - 0.00 in   Overcast
5:56 PM 51.1 °F 46.0 °F 83% 29.96 in 10.0 mi North 24.2 mph 29.9 mph 0.00 in Rain Light Rain
6:15 PM 51.1 °F 44.1 °F 77% 29.99 in 10.0 mi North 23.0 mph 32.2 mph 0.00 in   Overcast
6:56 PM 48.9 °F 45.0 °F 86% 29.99 in 9.0 mi North 17.3 mph - 0.00 in Rain Light Rain
7:56 PM 48.9 °F 46.0 °F 90% 29.99 in 5.0 mi NW 8.1 mph - 0.02 in Rain Light Rain
8:56 PM 48.9 °F 46.0 °F 90% 29.98 in 10.0 mi West 4.6 mph - 0.02 in   Overcast
9:56 PM 48.9 °F 46.0 °F 90% 29.99 in 10.0 mi WNW 9.2 mph - 0.01 in   Overcast
10:56 PM 46.9 °F 44.1 °F 90% 29.98 in 10.0 mi West 8.1 mph - N/A   Mostly Cloudy
11:56 PM 48.0 °F 45.0 °F 89% 29.96 in 10.0 mi WNW 8.1 mph - N/A   Overcast